Вернуться в каталог

STARLINK-36225

АктивенСвязьVLEO
NORAD 67207·PAYLOAD·🇺🇸 United States

Запущен Dec 17, 2025 с Vandenberg Space Force Base

Loading…

Ближайшие Пролёты (ближайшие 24 часа)

TLE

СвежийSource: CelesTrak SupGP

Эпоха: Sep 15, 2026, 03:20 UTC

1 67207C 25304R   26258.13937500 -.00089483  00000+0 -74887-2 0  2584
2 67207  70.0014  56.8365 0002625 266.0445   0.7177 14.98429925    17

Отслеживайте STARLINK-36225 в реальном времени с AllMySat

Download on the App Store